Starlink 35685

operational
NORAD ID: 67128 Int'l Des: 2025-299 Owner: SPXS Country: US Constellation: starlink
LEOCIRCULAR

Starlink 35685について

説明を読み込み中...

リアルタイム位置

3D地球を読み込み中...

次回通過

高度履歴

Altitude vs Time

uPlot chart will show altitude changes over time

軌道要素

1 67128C 25299AC 25349.45812500 .01560900 00000+0 22450-2 0 3493
2 67128 43.0013 301.3185 0007880 255.5552 123.4120 16.02814101 18
Epoch: Dec 15, 2025 • Age: 58 hours

現在のステータス

高度 254.8 km
速度 7.76 km/s
衛星直下点 43.02°N, 154.77°E
打ち上げ日 Dec 15, 2025
運用期間 2 days
タイプ internet

技術仕様

分類 Payload
質量 575.00 kg
乾燥質量 530.00 kg
総質量 575.00 kg
長さ 0.30 m
直径 4.10 m
スパン 29.00 m
形状 Box + pan
製造者 SPXS
バスタイプ Starlink V2MO
フェーズステータス In Orbit
所有者/国 SPXS/US

大規模コンステレーション

Loading constellations...